CZ-2C R/B, 62078

Orbit data source: Space-Track

CZ-2C R/B, 62078 is space debris in SSO originally from a launch on Sun, 24 Nov 2024 UTC via a CHANG ZHENG 2C launch vehicle from the Jiuquan Satellite Launch Center, China (JSC). Debris objects in space refer to the collection of defunct objects orbiting the Earth. Examples of debris include non-operational satellites, rocket bodies, and fragments generated from explosions, collisions, or faulty payload assembly.

Loading next visibility...
Identifier
62078, 2024-218A
Orbit
SSO
Last TLE update
8 hours ago
Origin
Manufacturer
CALT
Mission
Spacecraft
Bus & Motor
CZ-2 STAGE 2, Unknown motor
Mass
~3,800 kg wet, ~3,800 kg dry
Launch date (UTC)
2024-11-24 (7 months ago)
Launch vehicle
CHANG ZHENG 2C
Launch site
Jiuquan Satellite Launch Center, China (JSC)
Object type
Payload
Rocket body
Debris
Shape & HBR
Cyl, 7.49 m
Radar Cross Section
23.715 m², Large (>1 m²)

Expand to show TLE details & history

TLE from 8 hours ago
0 CZ-2C R/B
1 62078U 24218A   25181.78410871  .00004076  00000-0  19293-3 0  9997
2 62078  97.5453 191.5430 0050639 154.9344 205.4365 15.18785808 33028
Epoch: 2025-06-30T18:49Z
TLE epoch observation values (Epoch: 2025-06-30T18:49:06.992Z)
Latitude
-0.00003°
Longitude
-9.82508°
Altitude
544.131 km
Speed
7.573 km/s
True Right ascension
12h 46m 10s
True Declination
0° 00' 00"
Sunlit
Object was in daylight at epoch
Visualization orbit readout
Latitude
53.62508°
Longitude
-19.78835°
Altitude
523.957 km
Speed
7.603 km/s
Apparent Right ascension
06h 21m 40s
Apparent Declination
26° 14' 57"
Sunlit
Object is in daylight
Visualization observer readout
Local Sidereal Time
14:35:02
Azimuth
311.182° NW
Elevation
-5.41°
Doppler factor
1
Orbital elements
Apogee altitude
541.345 km
Perigee altitude
471.619 km
Semi-major axis
6,884.619 km
Eccentricity
0.00506
Inclination
97.5453°
RAAN
191.543°
Arg. of periapsis
154.9344°
True anomaly
Unknown
Mean anomaly
205.4365°
Eccentric anomaly
Unknown
Mean motion
3.79947 °/min
Orbital period
94.75 mins
BSTAR
0.00019293
Loading maneuver chart data...
Loading SW <> Apogee altitude chart data...
Loading historical data...
Loading historical data...
Loading historical data...
Loading historical data...
Loading historical data...
Loading historical data...
Loading historical data...
Other satellites on launch #218 in the year 2024 (2024-11-24 UTC)

CZ-2C R/B Visibility forecast

Observer location: undefined°, undefined°

Span
Click to sort rows by Start time (UTC) header in descending order
Start Az.
Max El. time (UTC)
Max El. Az.
Max El.
End time (UTC)
End Az.
4 mins2025-07-01 12:47:49.094Z53.477° ENE2025-07-01 12:49:49.094Z95.348° ESE19.559°2025-07-01 12:51:49.094Z137.296° SSE
7 mins2025-07-02 00:58:49.094Z183.564° SSW2025-07-02 01:01:49.094Z236.017° WSW37.374°2025-07-02 01:05:49.094Z337.576° N
|